ONEWEB-0304, 49092

Orbit data source: Space-Track

ONEWEB-0304, 49092 is a payload satellite owned by One Web (NAA) (UK) in LEO that was launched on Sat, 21 Aug 2021 UTC via a SOYUZ-2-1B launch vehicle from the Tyuratam Missile And Space Complex (TTMTR). Payload-class satellites include a variety of spacecraft equipped with specific instruments for various scientific and technological missions. These include communications satellites like Starlink; space stations such as the ISS; scientific satellites like the Hubble; Earth observation satellites from companies like Planet Labs, Umbra, and HawkEye 360; GPS; miniature CubeSats for education and research; and military/defense satellites.

Loading next visibility...
Identifier
49092, 2021-075T
Orbit
LEO
Country
Flag of UKUK
Related business
Manufacturer
One Web
Mission
Operational Commercial Communications
Bus & Motor
ARROW, Unknown motor
Mass
148 kg wet, ~140 kg dry
Launch date (UTC)
2021-08-21 (5 years ago)
Launch vehicle
SOYUZ-2-1B
Launch site
Tyuratam Missile And Space Complex (TTMTR)
Object type
Payload
Rocket body
Debris
Shape & HBR
Trap Box + 2 Pan, 6.7 m
Radar Cross Section
3.464 m², Large (>1 m²)

Expand to show TLE details & history
Last TLE update: 21 hours ago

TLE from 21 hours ago
0 ONEWEB-0304
1 49092U 21075T   26175.23040190  .00000012  00000-0 -25190-5 0  9995
2 49092  87.9132   4.4687 0002025  87.6486 272.4878 13.17650587234508
Epoch: 2026-06-24T05:31Z
TLE epoch observation values (Epoch: 2026-06-24T05:31:46.724Z)
Latitude
0.00006°
Longitude
9.13342°
Altitude
1,196.539 km
Speed
7.256 km/s
True Right ascension
00h 17m 52s
True Declination
0° 00' 00"
Sunlit
Object was in daylight at epoch
Visualization orbit readout
Latitude
Unknown
Longitude
Unknown
Altitude
Unknown
Speed
Unknown
Apparent Right ascension
Unknown
Apparent Declination
Unknown
Sunlit
N/A
Visualization observer readout
Local Sidereal Time
13:53:51
Azimuth
Unknown
Elevation
Unknown
Doppler factor
Unknown
Orbital elements
Apogee altitude
1,192.349 km
Perigee altitude
1,189.283 km
Semi-major axis
7,568.953 km
Eccentricity
0.0002
Inclination
87.9132°
RAAN
4.4687°
Arg. of periapsis
87.6486°
True anomaly
272.46462°
Mean anomaly
272.4878°
Eccentric anomaly
272.47621°
Mean motion
3.29602 °/min
Orbital period
109.22 mins
BSTAR
-0.000002519
Loading maneuver chart data...
Computing Atmospheric mass density...
Loading historical data...
Loading historical data...
Loading historical data...
Loading historical data...
Loading historical data...
Loading historical data...
Loading historical data...

Documentation

Showing up to 5 results
|